sat.trackr.live / text

‹ back to catalog

STARLINK-5244

NORAD 54199 · 2022-141AU

PAYLOAD ACTIVE UNKNOWN

§ Identity

Operator
Country
US
Launch date
2022-10-28
Launch site
AFWTR
Launch vehicle
Mass (kg)
RCS (m²)

Purposes: comms

External: N2YO · Heavens-Above · Gunter

§ Orbital elements

Epoch: 2026-05-25T00:42:04.170816Z

Period
95.44 min
Inclination
53.2149°
Eccentricity
0.0001194
Mean motion
15.08842609 rev/d
Perigee alt
538.9 km
Apogee alt
540.6 km
Semi-major
6,917.9 km
B*
-2.3486e-5
RAAN
11.3405°
Arg perigee
114.5473°
Mean anomaly
245.5644°
Rev number
19,752

§ Raw data

STARLINK-52441 54199U 22141AU  26145.02921494 -.00000662  00000+0 -23486-4 0  99992 54199  53.2149  11.3405 0001194 114.5473 245.5644 15.08842609197525

JSON: /api/v1/satellites/54199 · /tle

For live sub-satellite position, see the globe view (requires WebGL).

§ Visibility from observer

Set your observer location to see the next 7 days of passes ≥ 10°. The values pass through the URL so the page stays shareable.

No JS? Fill the form by hand. The geolocation button needs JavaScript.